User: anonymous   Login
Location: Nebraska Star Party
(42.6000°N, 100.8833°W)
Time: 07:01:48
(UTC-05:00)
Language:

Iridium 37 - Orbit

View from above orbital plane
View from above orbital plane
View from above satellite
View from above satellite

Ground track
Ground track

The orbit data is extracted from the following two-line orbital elements,

1 24968U 97056D   17234.59909255 +.00000136 +00000-0 +41376-4 0  9992
2 24968 086.3952 291.1165 0002210 093.6229 266.5220 14.34219387041847
Epoch (UTC): 22 August 2017 14:22:41
Eccentricity: 0.0002210
inclination: 86.3952°
perigee height: 776 km
apogee height: 779 km
right ascension of ascending node: 291.1165°
argument of perigee: 93.6229°
revolutions per day: 14.34219387
mean anomaly at epoch: 266.5220°
orbit number at epoch: 4184

The dashed part of the orbit path shows where the satellite is in the earth's shadow,  

DLR